FW7889 Weather Reports


time (UTC)temp
C
wind
direction
speed
KPH
gust
KPH
rain 1hr
cm
rain 24hr
cm
rain mn
cm
humidity
%
barometer
mb
20260510220942 10 304 3.2 4.8 0.00 0.20 0.20 41 1069.9
20260510215940 10 280 4.8 4.8 0.00 0.20 0.20 37 1069.9
20260510214935 11 257 4.8 4.8 0.00 0.20 0.20 35 1069.8
20260510213935 10 241 14.5 16.1 0.00 0.20 0.20 34 1070.0
20260510212933 11 239 6.4 9.7 0.00 0.20 0.20 34 1069.9
20260510211933 10 210 8.0 9.7 0.00 0.20 0.20 37 1069.8
20260510210930 10 277 6.4 8.0 0.00 0.20 0.20 42 1069.5
20260510205925 11 307 6.4 8.0 0.00 0.20 0.20 44 1069.2
20260510204923 11 212 8.0 11.3 0.00 0.20 0.20 49 1069.2
20260510203922 11 239 12.9 16.1 0.00 0.20 0.20 51 1069.2
20260510202920 11 242 9.7 12.9 0.00 0.20 0.20 52 1069.2
20260510201918 11 239 11.3 16.1 0.00 0.20 0.20 53 1069.0
20260510200918 11 262 11.3 14.5 0.00 0.20 0.20 53 1068.8
20260510195918 11 315 8.0 11.3 0.00 0.20 0.20 52 1069.2
20260510194916 11 316 14.5 17.7 0.00 0.20 0.20 51 1069.0
20260510193914 11 234 14.5 16.1 0.00 0.20 0.20 48 1069.1
20260510192911 11 302 3.2 3.2 0.00 0.20 0.20 46 1069.1
20260510191908 11 318 1.6 3.2 0.00 0.20 0.20 47 1068.9
20260510190907 11 217 6.4 8.0 0.00 0.20 0.20 46 1069.0
20260510185906 12 236 25.7 33.8 0.00 0.20 0.20 46 1068.9
20260510184906 11 221 9.7 11.3 0.00 0.20 0.20 48 1068.8
20260510183903 11 252 4.8 8.0 0.00 0.20 0.20 49 1068.5
20260510182901 11 331 6.4 8.0 0.00 0.20 0.20 49 1068.3
20260510181859 11 282 6.4 8.0 0.00 0.20 0.20 50 1068.1
20260510180858 12 313 8.0 11.3 0.00 0.20 0.20 48 1068.0
20260510175858 12 188 3.2 8.0 0.00 0.20 0.20 51 1067.9
20260510174856 12 321 8.0 11.3 0.00 0.20 0.20 50 1067.9
20260510173856 11 300 4.8 4.8 0.00 0.20 0.20 51 1067.8
20260510172854 11 253 6.4 9.7 0.00 0.20 0.20 50 1067.7
20260510171852 11 306 6.4 8.0 0.00 0.20 0.20 54 1067.9
20260510170852 11 275 6.4 8.0 0.00 0.20 0.20 54 1067.8
20260510165849 11 232 8.0 9.7 0.00 0.20 0.20 55 1067.5
20260510164849 12 244 8.0 11.3 0.00 0.20 0.20 54 1067.6
20260510163846 11 241 11.3 12.9 0.00 0.20 0.20 59 1067.5
20260510162843 11 303 3.2 4.8 0.00 0.20 0.20 58 1067.7
20260510161842 11 323 8.0 11.3 0.00 0.20 0.20 56 1067.4
20260510160841 11 302 4.8 8.0 0.00 0.20 0.20 55 1067.6
20260510155837 11 245 8.0 9.7 0.00 0.20 0.20 58 1067.5
20260510154837 11 292 8.0 11.3 0.00 0.20 0.20 61 1067.6
20260510153833 10 220 4.8 4.8 0.00 0.20 0.20 68 1067.7
20260510152832 10 321 4.8 8.0 0.00 0.20 0.20 71 1067.3
20260510151831 10 214 4.8 4.8 0.00 0.20 0.20 71 1067.3
20260510150831 10 328 4.8 4.8 0.00 0.20 0.20 75 1067.1
20260510145829 9 257 4.8 4.8 0.00 0.20 0.20 74 1067.0
20260510144828 8 237 9.7 12.9 0.00 0.20 0.20 78 1066.7
20260510143824 8 278 4.8 4.8 0.00 0.20 0.20 82 1066.8
20260510142824 7 240 9.7 12.9 0.00 0.20 0.20 82 1066.7
20260510141823 7 240 4.8 8.0 0.00 0.20 0.20 84 1066.6
20260510140818 7 233 12.9 14.5 0.00 0.20 0.20 90 1066.9
20260510135813 6 235 8.0 9.7 0.00 0.20 0.20 91 1066.6
20260510134813 6 261 1.6 1.6 0.00 0.20 0.20 96 1066.5
20260510133811 6 271 0.0 0.0 0.00 0.20 0.20 96 1066.9
20260510132809 6 261 0.0 1.6 0.18 0.20 0.20 95 1066.7
20260510131804 6 282 1.6 1.6 0.00 0.18 0.18 96 1067.3
20260510130804 6 255 1.6 1.6 0.00 0.18 0.18 95 1067.2
20260510125803 6 253 1.6 1.6 0.00 0.18 0.18 94 1066.9
20260510124802 6 271 0.0 1.6 0.00 0.18 0.18 95 1066.6
20260510123801 6 270 0.0 0.0 0.00 0.18 0.18 97 1066.5
20260510122759 6 266 0.0 0.0 0.00 0.18 0.18 97 1066.1
20260510121758 6 270 0.0 0.0 0.00 0.18 0.18 97 1065.6
20260510120758 6 296 4.8 4.8 0.00 0.18 0.18 98 1065.8
20260510115757 6 291 1.6 1.6 0.00 0.18 0.18 99 1065.5
20260510114755 6 304 4.8 4.8 0.00 0.18 0.18 99 1065.3
20260510113753 6 305 4.8 4.8 0.13 0.18 0.18 99 1065.2
20260510112753 7 322 4.8 4.8 0.00 0.15 0.15 99 1065.1
20260510111751 7 313 8.0 9.7 0.00 0.15 0.15 99 1065.2
20260510110747 8 252 1.6 3.2 0.00 0.15 0.15 99 1064.6
20260510105746 8 241 3.2 4.8 0.00 0.15 0.15 99 1064.7
20260510104743 8 250 4.8 4.8 0.00 0.15 0.15 99 1064.4
20260510103743 8 239 4.8 4.8 0.00 0.15 0.15 99 1064.2
20260510102740 8 242 1.6 3.2 0.00 0.15 0.15 99 1063.7
20260510101739 8 247 4.8 4.8 0.00 0.15 0.15 99 1063.4
20260510100739 8 259 0.0 1.6 0.00 0.15 0.15 99 1063.7
20260510095738 8 245 4.8 4.8 0.00 0.15 0.15 99 1063.5
20260510094738 8 251 3.2 3.2 0.00 0.15 0.15 99 1063.2
20260510093735 8 255 0.0 0.0 0.00 0.15 0.15 99 1063.0
20260510092735 8 265 0.0 0.0 0.00 0.15 0.15 99 1063.0
20260510091732 8 262 0.0 0.0 0.00 0.15 0.15 99 1063.0
20260510090732 8 259 0.0 1.6 0.00 0.15 0.15 99 1062.9
20260510085730 8 262 0.0 0.0 0.00 0.15 0.15 99 1062.7
20260510084727 8 245 4.8 4.8 0.00 0.15 0.15 99 1062.7
20260510083727 8 261 3.2 3.2 0.00 0.15 0.15 99 1062.5
20260510082725 8 254 0.0 0.0 0.00 0.15 0.15 99 1062.6
20260510081721 8 240 4.8 4.8 0.00 0.15 0.15 99 1062.7
20260510080719 8 246 4.8 4.8 0.00 0.15 0.15 99 1062.8
20260510075717 8 248 1.6 1.6 0.00 0.15 0.15 99 1062.5
20260510074712 8 265 0.0 0.0 0.00 0.15 0.15 99 1062.6
20260510073711 8 248 3.2 3.2 0.00 0.15 0.15 99 1062.6
20260510072708 8 257 0.0 0.0 0.00 0.15 0.15 99 1062.3
20260510071707 8 258 1.6 1.6 0.00 0.15 0.15 99 1062.4
20260510070707 8 264 0.0 0.0 0.00 0.15 0.15 99 1062.0
20260510065705 8 256 3.2 3.2 0.00 0.15 0.15 99 1061.9
20260510064704 8 206 1.6 3.2 0.00 0.15 0.15 99 1062.0
20260510063659 8 258 1.6 1.6 0.00 0.15 0.15 99 1062.6
20260510062657 8 256 1.6 3.2 0.00 0.15 0.15 99 1062.7
20260510061654 8 255 3.2 3.2 0.00 0.15 0.15 99 1062.8
20260510060654 8 253 3.2 3.2 0.00 0.15 0.15 99 1062.9
20260510055653 8 258 1.6 1.6 0.00 0.15 0.15 99 1062.8
20260510054652 8 254 0.0 1.6 0.00 0.15 0.15 99 1062.6
20260510053647 8 264 0.0 1.6 0.00 0.15 0.15 99 1062.6
20260510052646 8 261 0.0 1.6 0.00 0.15 0.15 99 1062.4
20260510051644 9 263 0.0 0.0 0.00 0.15 0.15 99 1062.5
20260510050644 9 244 1.6 1.6 0.36 0.15 0.15 99 1062.5
20260510045643 9 255 0.0 0.0 0.13 0.10 0.10 99 1062.7
20260510044642 9 267 0.0 0.0 0.13 0.05 0.05 99 1062.6
20260510043641 9 262 0.0 1.6 0.00 0.03 0.03 99 1062.4
20260510042640 9 263 0.0 0.0 0.18 0.03 0.03 99 1062.4
20260510041639 9 257 0.0 0.0 0.00 0.00 0.00 99 1062.3
20260510040639 9 255 1.6 1.6 0.00 0.00 0.00 99 1062.5
20260510035637 10 237 9.7 11.3 0.13 0.13 0.13 99 1062.6
20260510034635 10 284 11.3 12.9 0.48 0.10 0.10 99 1062.7
20260510033634 10 237 6.4 9.7 0.13 0.03 0.03 99 1062.2
20260510032635 10 166 8.0 9.7 0.00 0.00 0.00 97 1061.4
20260510031631 10 178 3.2 3.2 0.00 0.00 0.00 97 1061.9
20260510030628 10 227 4.8 8.0 0.00 0.00 0.00 97 1061.6
20260510025623 10 285 1.6 3.2 0.00 0.00 0.00 97 1061.8
20260510024623 10 257 6.4 9.7 0.00 0.00 0.00 97 1061.5
20260510023621 10 163 6.4 8.0 0.00 0.00 0.00 97 1061.0
20260510022619 10 181 4.8 9.7 0.00 0.00 0.00 97 1061.3
20260510021616 10 235 4.8 4.8 0.00 0.00 0.00 97 1061.3
20260510020613 10 232 4.8 4.8 0.00 0.00 0.00 96 1061.2
20260510015611 10 190 6.4 9.7 0.00 0.00 0.00 96 1061.2
20260510014609 10 165 4.8 4.8 0.00 0.00 0.00 96 1061.5
20260510013607 10 163 8.0 11.3 0.00 0.00 0.00 96 1061.4
20260510012602 10 183 11.3 12.9 0.00 0.00 0.00 96 1061.3
20260510011559 10 191 8.0 11.3 0.00 0.00 0.00 96 1061.1
20260510010557 10 200 3.2 3.2 0.00 0.00 0.00 97 1061.2
20260510005555 10 243 1.6 1.6 0.00 0.00 0.00 97 1061.2
20260510004551 10 209 3.2 3.2 0.00 0.00 0.00 98 1061.0
20260510003551 10 212 1.6 3.2 0.00 0.00 0.00 97 1060.7
20260510002548 10 209 1.6 1.6 0.00 0.00 0.00 97 1060.8
20260510001548 10 206 3.2 4.8 0.00 0.00 0.00 97 1060.7
20260510000548 10 200 4.8 4.8 0.00 0.00 0.00 96 1060.7
20260509235547 10 205 4.8 4.8 0.00 0.00 0.00 96 1060.7
20260509234545 10 172 4.8 8.0 0.00 0.00 0.00 95 1060.7
20260509233541 10 194 6.4 8.0 0.00 0.00 0.00 95 1060.7
20260509232540 10 237 1.6 3.2 0.00 0.00 0.00 94 1060.9
20260509231539 10 259 0.0 0.0 0.00 0.00 0.00 94 1061.0
20260509230539 10 256 1.6 1.6 0.00 0.00 0.00 94 1060.8
20260509225537 10 166 4.8 8.0 0.00 0.00 0.00 94 1060.8
20260509224534 11 190 4.8 4.8 0.00 0.00 0.00 94 1061.1
20260509223534 10 221 3.2 3.2 0.00 0.00 0.00 94 1060.8
20260509222533 10 232 1.6 1.6 0.00 0.00 0.00 94 1060.7
20260509221531 10 168 8.0 9.7 0.00 0.00 0.00 94 1060.8